This demonstration page uses our WeatherBlox Daily Observations layout. Learn more.

Left ArrowRight Arrow

Hourly Observations for January 21, 2016

Temp ( °F °C ) Dew Point ( °F °C ) Humidity (%) Winds ( mph kmh ) Pressure ( in mb ) Visibility ( mi km ) Precip ( " mm )
12:59 am 00:59 Cloudy 31 -0.6 24 -4.4 76 76 SW 8 13 30.13 1020 10 16 0.00 0.00
1:59 am 01:59 Mostly Clear 31 -0.6 24 -4.4 76 76 W 7 11 30.14 1021 10 16 0.00 0.00
2:59 am 02:59 Mostly Cloudy 31 -0.6 25 -3.9 79 79 W 13 20 30.16 1021 10 16 0.00 0.00
3:59 am 03:59 Mostly Cloudy 32 0 26 -3.3 79 79 WNW 15 24 30.17 1022 10 16 0.00 0.00
4:59 am 04:59 Mostly Cloudy 33 0.6 26 -3.3 75 75 NW 13 20 30.19 1022 10 16 0.00 0.00
5:59 am 05:59 Mostly Clear 32 0 21 -6.1 64 64 NNW 16 26 30.22 1023 10 16 0.00 0.00
6:59 am 06:59 Mostly Clear 30 -1.1 19 -7.2 64 64 N 14 22 30.24 1024 10 16 0.00 0.00
7:59 am 07:59 Mostly Sunny 29 -1.7 19 -7.2 66 66 NNW 16 26 30.27 1025 10 16 0.00 0.00
8:59 am 08:59 Mostly Sunny 30 -1.1 16 -8.9 56 56 NNW 17 28 30.30 1026 10 16 0.00 0.00
9:59 am 09:59 Mostly Sunny 32 0 16 -8.9 52 52 N 14 22 30.32 1027 10 16 0.00 0.00
10:59 am 10:59 Mostly Sunny 34 1.1 17 -8.3 50 50 N 14 22 30.31 1027 10 16 0.00 0.00
11:59 am 11:59 Partly Cloudy 35 1.7 17 -8.3 48 48 NNW 14 22 30.29 1026 10 16 0.00 0.00
12:59 pm 12:59 Partly Cloudy 38 3.3 18 -7.8 44 44 NNW 9 15 30.28 1026 10 16 0.00 0.00
1:59 pm 13:59 Mostly Sunny 38 3.3 17 -8.3 43 43 NNW 9 15 30.25 1024 10 16 0.00 0.00
2:59 pm 14:59 Mostly Sunny 38 3.3 17 -8.3 43 43 N 12 19 30.26 1025 10 16 0.00 0.00
3:59 pm 15:59 Mostly Sunny 37 2.8 16 -8.9 42 42 NNW 8 13 30.26 1025 10 16 0.00 0.00
4:59 pm 16:59 Mostly Sunny 35 1.7 16 -8.9 46 46 N 9 15 30.27 1025 10 16 0.00 0.00
5:59 pm 17:59 Mostly Clear 34 1.1 16 -8.9 48 48 N 8 13 30.29 1026 10 16 0.00 0.00
6:59 pm 18:59 Clear 33 0.6 16 -8.9 49 49 NNW 9 15 30.32 1027 10 16 0.00 0.00
7:59 pm 19:59 Clear 33 0.6 16 -8.9 49 49 N 8 13 30.31 1027 10 16 0.00 0.00
8:59 pm 20:59 Clear 32 0 17 -8.3 54 54 N 9 15 30.32 1027 10 16 0.00 0.00
9:59 pm 21:59 Clear 31 -0.6 16 -8.9 54 54 N 10 17 30.32 1027 10 16 0.00 0.00
10:59 pm 22:59 Clear 30 -1.1 16 -8.9 56 56 N 8 13 30.33 1027 10 16 0.00 0.00
11:59 pm 23:59 Mostly Clear 30 -1.1 16 -8.9 56 56 NNW 10 17 30.32 1027 10 16 0.00 0.00

Powered by AerisWeather